Regional Weather Roundup
Issued by NWS

Home | Current Version | Previous Version | Graphics & Text | Print | Product List | Glossary On
Versions: 1 2 3 4 5 6 7 8 9 10 11 12 13 14 15 16 17 18 19 20 21 22 23 24 25 26 27 28 29
000
ASUS45 KCYS 260410
RWRWY

WYOMING REGIONAL WEATHER ROUNDUP
NATIONAL WEATHER SERVICE CHEYENNE WY
1000 PM MDT SAT OCT 25 2014

NOTE:  "FAIR" INDICATES FEW OR NO CLOUDS BELOW 12,000 FEET
WITH NO SIGNIFICANT WEATHER AND/OR OBSTRUCTIONS TO VISIBILITY.

WYZ001-260500-
YELLOWSTONE NATIONAL PARK

CITY           SKY/WX    TMP DP  RH WIND       PRES   REMARKS
LK YELLOWSTONE   N/A     36  27  69 CALM      29.99
W YELLOWSTONE  NOT AVBL

$$
WYZ002>013-054>058-071-098>099-260500-
NORTHERN WYOMING

CITY           SKY/WX    TMP DP  RH WIND       PRES   REMARKS
JACKSON        MOCLDY    54  30  40 S8        29.92F
CODY           PTCLDY    55  19  24 CALM      29.79
GREYBULL       PTCLDY    61  23  23 E5        29.72F
WORLAND        PTCLDY    59  21  23 S10       29.75F
SHERIDAN       MOCLDY    58  26  29 VRB6      29.71F
BUFFALO          N/A     68  18  14 SW14      29.80F
GILLETTE       CLOUDY    55  38  52 S21       29.80F
HULETT         FAIR      64  32  29 S7        29.82
NEWCASTLE      FAIR      63  32  31 E18G25    29.87

$$
WYZ014>020-022>026-101>103-260500-
CENTRAL WYOMING

CITY           SKY/WX    TMP DP  RH WIND       PRES   REMARKS
BIG PINEY      PTCLDY    45  22  40 NW6       30.01F
PINEDALE       PTCLDY    45  25  45 NE6       30.01
DUBOIS         FAIR      54  21  28 W17       29.96R
LANDER         PTCLDY    68  18  14 SW9G20    29.85S
RIVERTON       PTCLDY    59  29  31 S13       29.86F
CASPER         MOCLDY    64  25  22 S17       29.90F
DOUGLAS        CLOUDY    55  23  28 E5        29.92F

$$
WYZ021-027>030-104>119-260500-
SOUTHERN WYOMING

CITY           SKY/WX    TMP DP  RH WIND       PRES   REMARKS
EVANSTON       PTCLDY    56  32  40 SW22      30.02S
KEMMERER       PTCLDY    50  21  32 CALM      30.03S
FORT BRIDGER   FAIR      55  28  36 W8        30.05S
ROCK SPRINGS   PTCLDY    56  29  35 SW20      30.00F
DIXON          FAIR      45  32  60 CALM      30.10F
RAWLINS        CLEAR     57  28  33 SW15      30.03F
SARATOGA       FAIR      55  27  33 S15       30.08F
LARAMIE        CLEAR     47  20  34 S16       30.09F
CHEYENNE       PTCLDY    52  23  32 W6        30.05F
TORRINGTON     CLEAR     50  37  61 SE6       29.92F
PINE BLUFFS    FAIR      52  32  46 S8        30.01F

$$



USA.gov is the U.S. government's official web portal to all federal, state and local government web resources and services.